Humidity-temperature Sensor

Selected Measurement Type: Relative Humidity

 
Relative Humidity [%]     6 entries per hour
Showing data from 11/2/2014 (00:00:00 Z) to 10/30/2014 (00:01:00 Z)
Previous Next [ Day | 3-Days | 7-Days ]
First Last
Prev [ Day | 3-Days | 7-Days ] Next
First Last

Start Time:     :
End Time:     :     
Time (in GMT) :00 :50 :40 :30 :20 :10
Previous Next [ Day | 3-Days | 7-Days ]
First Last
Prev [ Day | 3-Days | 7-Days ] Next
First Last


123 => good data
MM => data is determined as missing
-- => data not received/configured
Back to Top Back to Top
11/2/2014 00:00 to 23:10 78.61 77.72 77.55 77.83 77.89 76.77
11/1/2014 23:00 to 22:10 77.19 77.59 76.73 77.06 77.72 80.05
11/1/2014 22:00 to 21:10 83.42 78.40 78.21 78.12 79.01 79.86
11/1/2014 21:00 to 20:10 79.76 79.18 78.72 79.27 79.59 79.61
11/1/2014 20:00 to 19:10 79.27 78.02 78.25 79.08 79.25 79.21
11/1/2014 19:00 to 18:10 79.16 79.23 79.44 79.67 79.54 79.74
11/1/2014 18:00 to 17:10 79.61 79.59 79.91 79.71 79.50 79.63
11/1/2014 17:00 to 16:10 79.23 78.12 77.28 76.70 77.04 77.06
11/1/2014 16:00 to 15:10 76.98 77.00 76.75 76.28 77.02 75.52
11/1/2014 15:00 to 14:10 75.75 75.64 75.90 77.51 78.70 78.36
11/1/2014 14:00 to 13:10 77.17 77.64 77.83 78.04 77.45 77.13
11/1/2014 13:00 to 12:10 76.24 77.30 78.00 77.28 77.15 77.53
11/1/2014 12:00 to 11:10 77.76 78.32 77.79 78.36 77.76 78.32
11/1/2014 11:00 to 10:10 78.51 78.40 78.72 78.78 78.34 78.29
11/1/2014 10:00 to 9:10 78.04 77.74 77.64 78.85 79.31 79.27
11/1/2014 09:00 to 8:10 80.01 79.82 78.55 79.21 79.74 79.01
11/1/2014 08:00 to 7:10 79.80 79.63 78.61 77.04 77.00 77.17
11/1/2014 07:00 to 6:10 76.58 77.87 77.83 78.63 78.78 77.89
11/1/2014 06:00 to 5:10 78.76 78.55 78.21 78.36 79.14 79.31
11/1/2014 05:00 to 4:10 79.04 79.25 78.72 78.21 77.81 77.76
11/1/2014 04:00 to 3:10 77.66 78.10 78.27 77.83 77.11 77.38
11/1/2014 03:00 to 2:10 77.02 77.13 76.94 76.32 76.22 76.22
11/1/2014 02:00 to 1:10 75.69 75.05 74.37 74.14 74.78 74.50
11/1/2014 01:00 to 0:10 74.63 74.67 74.56 74.71 74.37 73.82
11/1/2014 00:00 to 23:10 73.21 73.29 73.06 72.59 72.42 73.78
10/31/2014 23:00 to 22:10 73.95 73.50 72.87 73.50 74.52 76.15
10/31/2014 22:00 to 21:10 77.57 76.98 76.47 76.68 76.00 76.07
10/31/2014 21:00 to 20:10 76.17 76.49 76.68 77.36 78.08 77.96
10/31/2014 20:00 to 19:10 77.64 77.51 77.96 77.59 77.51 76.85
10/31/2014 19:00 to 18:10 77.00 77.38 77.26 77.74 78.04 77.66
10/31/2014 18:00 to 17:10 76.94 76.60 76.85 77.89 79.31 79.14
10/31/2014 17:00 to 16:10 79.27 79.04 78.55 78.04 77.70 77.09
10/31/2014 16:00 to 15:10 77.21 77.49 77.38 77.79 78.78 79.52
10/31/2014 15:00 to 14:10 80.14 79.46 80.46 80.24 80.75 81.13
10/31/2014 14:00 to 13:10 81.71 81.81 81.43 80.80 80.54 80.20
10/31/2014 13:00 to 12:10 79.97 79.84 79.52 79.46 79.33 80.24
10/31/2014 12:00 to 11:10 79.97 80.73 80.29 80.07 80.48 80.88
10/31/2014 11:00 to 10:10 80.99 81.26 81.39 81.49 81.16 81.24
10/31/2014 10:00 to 9:10 81.05 80.90 81.24 81.62 81.39 81.11
10/31/2014 09:00 to 8:10 80.77 80.56 79.99 79.88 80.10 79.84
10/31/2014 08:00 to 7:10 79.74 79.88 79.67 79.61 79.40 78.61
10/31/2014 07:00 to 6:10 78.93 78.91 78.32 78.25 78.57 78.19
10/31/2014 06:00 to 5:10 77.79 77.28 77.30 77.47 77.51 77.74
10/31/2014 05:00 to 4:10 77.81 78.63 79.12 78.76 78.44 78.10
10/31/2014 04:00 to 3:10 78.61 78.46 77.36 76.85 76.66 77.40
10/31/2014 03:00 to 2:10 77.74 77.87 77.76 77.81 77.15 76.64
10/31/2014 02:00 to 1:10 76.28 75.56 76.03 76.34 75.79 75.71
10/31/2014 01:00 to 0:10 75.71 76.51 78.51 80.24 82.98 76.32
10/31/2014 00:00 to 23:10 76.53 76.47 76.75 77.66 77.34 77.30
10/30/2014 23:00 to 22:10 76.90 77.21 77.47 77.34 76.70 77.13
10/30/2014 22:00 to 21:10 77.23 77.53 77.55 77.51 77.96 78.36
10/30/2014 21:00 to 20:10 78.70 79.44 79.01 78.89 79.84 79.38
10/30/2014 20:00 to 19:10 79.04 79.06 79.29 79.35 79.25 79.46
10/30/2014 19:00 to 18:10 80.33 80.07 80.75 81.60 83.32 85.27
10/30/2014 18:00 to 17:10 79.63 79.65 79.59 79.29 79.48 79.10
10/30/2014 17:00 to 16:10 80.10 79.40 78.82 79.23 78.93 78.78
10/30/2014 16:00 to 15:10 79.10 79.40 80.65 80.82 78.53 78.48
10/30/2014 15:00 to 14:10 79.01 79.12 80.20 80.65 81.96 82.00
10/30/2014 14:00 to 13:10 82.45 82.41 82.22 82.39 82.28 82.07
10/30/2014 13:00 to 12:10 81.81 81.79 81.83 82.17 81.96 82.17
10/30/2014 12:00 to 11:10 82.02 81.73 81.54 81.52 81.69 81.26
10/30/2014 11:00 to 10:10 81.39 81.13 80.75 80.99 81.35 81.62
10/30/2014 10:00 to 9:10 81.11 80.65 80.37 80.29 80.20 80.52
10/30/2014 09:00 to 8:10 80.29 80.24 80.03 79.67 79.23 79.06
10/30/2014 08:00 to 7:10 79.12 79.12 79.16 78.63 78.99 79.52
10/30/2014 07:00 to 6:10 79.71 80.07 80.01 80.48 80.56 80.07
10/30/2014 06:00 to 5:10 79.44 79.35 79.16 78.93 78.91 79.48
10/30/2014 05:00 to 4:10 80.22 79.91 80.03 79.69 79.57 79.88
10/30/2014 04:00 to 3:10 80.12 80.27 80.29 80.01 79.52 79.91
10/30/2014 03:00 to 2:10 79.52 80.05 80.16 80.69 80.99 80.65
10/30/2014 02:00 to 1:10 80.54 80.07 79.46 78.91 78.65 78.02
10/30/2014 01:00 to 0:10 77.32 77.89 77.34 76.92 76.90 77.30